Location: Sabalos
(43.2860°N, 0.1414°E)
Time: 04:32:05
(UTC+00:00)

Helios 1B rocket - Pass Details

Date: 05 July 2020
Orbit: 574 x 584 km, 98.1° (Epoch: 06 August)

Event Time Altitude Azimuth Distance (km) Brightness Sun altitude
Rises 23:49:42 0° 24° (NNE) 2,811 6.9 -24.0°
Reaches altitude 10° 23:52:06 10° 36° (NE) 1,904 5.7 -24.0°
Enters shadow 23:55:15 28° 84° (E) 1,115 3.8 -24.0°
